Content
SEND FEEDBACK

Daily
Averages
Monthly
Summary
United States of America

ALBANY, NEW YORK


Home > North America > United States > New York
Elevation: 275 feet     Latitude: 42 45N     Longitude: 073 48W

WEATHER
 
SELECT A DAY
Number of Records: 206,445;   Date Range: 1/1/95 - 7/23/14
 
SHARE

PRINT THIS DATA

[ ← Previous Day ]
WEATHER ALMANAC - JANUARY 16, 2013
[ Next Day → ]
[ °C ]   °F
Weather ElementAverageHighLow
Temperature29.4 °F30.9 °F (2:51 am)28 °F (4:51 am)
Dewpoint27.1 °F30.2 °F (8:28 pm)21.2 °F (1:51 am)
Humidity91.5 %100 % (8:28 pm)69 % (1:51 am)
Barometer30.00 in30.22 in (1:51 am)29.83 in (5:25 pm)
Wind Speed1.8 mph9.2 mph (7:51 pm)
Weather ElementAverage
Visibility2 mi
Wind DirectionENE (65.7 °)

Weather ElementTotal
Precipitation0.58 in
Heating Degree Days35.6 (Base 65)
Averaged from 56 records on January 16, 2013
WEATHER CONDITIONS BREAKOUT
WIND DIRECTION BREAKOUT
WEATHER BY HOUR - JANUARY 16, 2013
[ °C ]   °F
Local TimeTemperatureDewpointHumidityBarometerVisibilityWind DirectionWind SpeedGust SpeedPrecipitationEventsConditions
1:51 AM30.2 °F21.2 °F69 %30.22 in10.0 miCalmOvercast
2:51 AM30.9 °F21.9 °F69 %30.20 in10.0 miCalmOvercast
3:21 AM30.2 °F23.0 °F75 %30.17 in2.0 miSW (230°)3.5 mph0.00 inSnowLight Snow
3:32 AM28.4 °F24.8 °F86 %30.17 in1.5 miCalm0.00 inSnowLight Snow
4:01 AM28.4 °F26.6 °F93 %30.15 in1.0 miCalm0.00 inSnowLight Snow
4:09 AM28.4 °F26.6 °F93 %30.15 in0.8 miCalm0.01 inSnowLight Snow
4:31 AM28.4 °F26.6 °F93 %30.14 in1.0 miCalm0.03 inSnowLight Snow
4:51 AM28.0 °F27.0 °F96 %30.13 in1.0 miCalm0.05 inSnowLight Snow
5:01 AM28.4 °F26.6 °F93 %30.11 in0.8 miCalmSnowLight Snow
5:23 AM28.4 °F26.6 °F93 %30.11 in0.8 miCalm0.03 inSnowLight Snow
5:32 AM28.4 °F26.6 °F93 %30.10 in1.0 miSouth (190°)4.6 mph0.03 inSnowLight Snow
5:51 AM28.0 °F26.1 °F92 %30.12 in1.0 miCalm0.05 inSnowLight Snow
6:06 AM28.4 °F26.6 °F93 %30.10 in2.0 miCalm0.00 inSnowLight Snow
6:31 AM28.4 °F26.6 °F93 %30.10 in1.5 miCalm0.01 inSnowLight Snow
6:40 AM28.4 °F26.6 °F93 %30.10 in0.8 miCalmSnowLight Snow
6:51 AM28.0 °F26.1 °F92 %30.10 in1.0 miCalm0.02 inSnowLight Snow
7:11 AM28.4 °F26.6 °F93 %30.08 in0.8 miCalm0.01 inSnowLight Snow
7:26 AM28.4 °F26.6 °F93 %30.08 in0.5 miCalm0.03 inFog-SnowSnow
7:34 AM28.4 °F26.6 °F93 %30.09 in0.5 miCalm0.04 inSnowLight Snow
7:51 AM28.0 °F27.0 °F96 %30.10 in0.5 miCalm0.05 inFog-SnowSnow
8:01 AM28.4 °F26.6 °F93 %30.09 in0.8 miCalm0.01 inSnowLight Snow
8:22 AM28.4 °F26.6 °F93 %30.09 in1.0 miCalm0.02 inSnowLight Snow
8:40 AM28.4 °F26.6 °F93 %30.07 in0.8 miCalm0.02 inSnowLight Snow
8:51 AM28.4 °F26.6 °F93 %30.05 in0.8 miCalmSnowLight Snow
9:41 AM28.4 °F26.6 °F93 %30.04 in0.8 miNorth (360°)5.8 mph0.01 inSnowLight Snow
9:44 AM28.4 °F26.6 °F93 %30.04 in0.5 miNorth (360°)4.6 mph0.01 inSnowLight Snow
9:51 AM28.9 °F27.0 °F92 %30.06 in0.5 miNorth (350°)5.8 mph0.01 inSnowLight Snow
9:58 AM28.4 °F26.6 °F93 %30.04 in0.5 miNorth (360°)4.6 mph0.01 inSnowLight Snow
10:51 AM28.9 °F28.0 °F96 %30.00 in0.5 miENE (70°)4.6 mph0.05 inFog-SnowSnow
11:20 AM30.2 °F26.6 °F86 %29.97 in1.0 miNE (50°)3.5 mph0.01 inSnowLight Snow
11:38 AM30.2 °F26.6 °F86 %29.97 in1.0 miCalm0.01 inSnowLight Snow
11:51 AM30.0 °F27.0 °F88 %29.97 in1.0 miCalm0.01 inSnowLight Snow
12:06 PM30.2 °F26.6 °F86 %29.96 in1.0 miCalm0.01 inSnowLight Snow
12:32 PM30.2 °F28.4 °F93 %29.94 in1.0 miCalm0.02 inSnowLight Snow
12:51 PM30.0 °F28.0 °F92 %29.88 in1.0 miCalm0.02 inSnowLight Snow
1:18 PM30.2 °F26.6 °F86 %29.88 in2.0 miCalm0.00 inSnowLight Snow
1:51 PM30.0 °F28.0 °F92 %29.89 in2.0 miCalm0.00 inSnowLight Snow
2:23 PM30.2 °F28.4 °F93 %29.88 in2.0 miCalm0.00 inSnowLight Snow
2:51 PM30.0 °F28.0 °F92 %29.88 in2.0 miCalm0.00 inSnowLight Snow
3:02 PM30.2 °F28.4 °F93 %29.86 in2.0 miCalm0.00 inSnowLight Snow
3:26 PM30.2 °F28.4 °F93 %29.85 in2.0 miCalmSnowLight Snow
3:51 PM30.2 °F28.4 °F93 %29.86 in2.0 miCalmSnowLight Snow
4:51 PM30.0 °F28.0 °F92 %29.86 in4.0 miCalm0.00 inSnowLight Snow
5:07 PM30.2 °F28.4 °F93 %29.84 in6.0 miCalm0.00 inSnowLight Snow
5:25 PM30.2 °F28.4 °F93 %29.83 in6.0 miCalm0.00 inSnowLight Snow
5:51 PM30.9 °F28.9 °F92 %29.86 in6.0 miCalm0.00 inSnowLight Snow
6:51 PM30.9 °F28.0 °F89 %29.87 in9.0 miCalm0.00 inSnowLight Snow
7:51 PM30.9 °F28.9 °F92 %29.88 in7.0 miSouth (180°)9.2 mph0.00 inOvercast
8:28 PM30.2 °F30.2 °F100 %29.86 in4.0 miSouth (190°)6.9 mphOvercast
8:47 PM30.2 °F30.2 °F100 %29.86 in1.0 miSSW (200°)6.9 mphOvercast
8:51 PM30.0 °F28.9 °F96 %29.87 in1.0 miSSW (200°)6.9 mphOvercast
9:51 PM30.0 °F28.9 °F96 %29.88 in1.0 miSouth (190°)6.9 mphOvercast
10:39 PM30.2 °F28.4 °F93 %29.86 in0.5 miSouth (180°)5.8 mphOvercast
10:51 PM30.0 °F28.9 °F96 %29.87 in0.5 miSouth (190°)6.9 mphOvercast
11:10 PM30.2 °F28.4 °F93 %29.86 in1.0 miSouth (180°)6.9 mphOvercast
11:51 PM30.0 °F28.9 °F96 %29.86 in1.5 miSSW (200°)6.9 mphOvercast
Hourly data recorded from KALB, located miles away from Albany, New York







STORIES FROM OUR PARTNERS